RESOURCESAT-2A

Last updated on Sun Aug 31 2025 00:02:31 GMT+0000 (Coordinated Universal Time)

1 41877U 16074A 25242.31967494 .00000207 00000+0 11440-3 0 9994 2 41877 98.7513 312.7474 0001360 180.0593 180.0585 14.21642055452970
UTC large
Height (km)
Speed (km/s)
/
Latitude / Longitude
Inclination (degrees)
Orbital Period (minutes)
Azimuth
Elevation
Range (km)
Doppler Factor

Next 0 passes for location: London (51.5072 / 0.1276)

Sorry there are no passes over London.